Location: Frydek-Mistek
(49.6830°N, 18.3330°E)
Time: 22:07:59
(UTC+02:00)

Courier 1B Rocket - All Passes

Search period start: 27 May 2016 00:00
Search period end: 06 June 2016 00:00
Orbit: 921 x 1202 km, 28.2° (Epoch: 26 May)

Date Brightness Start Highest point End Pass type
(mag) Time Alt. Az. Time Alt. Az. Time Alt. Az.
03 Jun - 05:50:05 10° S 05:50:25 10° S 05:50:46 10° S daylight
04 Jun - 04:48:50 10° S 04:49:53 10° S 04:50:55 10° SSE daylight
05 Jun - 03:48:57 10° S 03:49:18 10° S 03:49:40 10° S visible
